Погода в Горновом

Россия / Алтайский край     53°04′29″N   85°20′13″E
темп.,
°C
ветер,
м/с
пор.,
м/с
влажн.,
%
обл.,
%
осадки,
мм/ч
давл.,
гПа
погр.,
м
10 мая, пн
пн1001:00+6св512560 0.0 1019544
04:00+4св512660 0.0 1019403
07:00+4св612744 0.0 1019457
10:00+10всв69585 0.0 1018859
13:00+14в79385 0.0 10161487
16:00+16в79264 0.0 10152039
19:00+15всв7113613 0.0 10141882
22:00+10всв7144668 0.0 1014507
11 мая, вт
вт1101:00+7всв6125687 0.0 1013462
04:00+5св61368100 0.0 1012359
07:00+6ссв51066100 0.0 1013392
10:00+10св5650100 0.0 1012807
13:00+14ссв4540100 0.0 10121576
16:00+16ссв4534100 0.0 10122087
19:00+16св343759 0.0 10121217
22:00+11зсз224918 0.0 101311
12 мая, ср
ср1201:00+9с6125814 0.0 1014279
04:00+7с49740 0.0 1014180
07:00+7с48846 0.0 1015254
10:00+12с456157 0.0 1016784
13:00+16ссв464522 1.1 10151747
16:00+18с883587 0.3 10142223
19:00+16с794162 0.3 10151136
22:00+12ссв475773 0.0 1018125
13 мая, чт
чт1301:00+9с34695 0.3 101950
04:00+8с33725 0.0 101928
07:00+10всв016588 0.0 102035
10:00+13з225499 0.0 1020556
13:00+18з123574 0.0 10192353
16:00+18зюз343340 0.0 10182402
19:00+16ююз464498 0.0 1017438
22:00+12ююз5115659 0.0 1017217
14 мая, пт
пт1401:00+10юз41061100 0.0 1016209
04:00+11зюз51171100 0.3 1014418
07:00+7зсз31288100 2.8 1015556
10:00+9з71180100 0.1 10161185
13:00+10сз911404 0.3 10191692
16:00+11сз9113588 0.0 10202464
19:00+10сз710396 0.0 10222366
22:00+6зсз49495 0.0 1025171